7 * 24
多渠道服务支持
STARLINK-37222(NORAD编号68663)是SpaceX星链互联网星座中的一颗卫星,隶属于SpaceX打造的近地轨道宽带互联网卫星系统,承担全球范围互联网接入服务任务。星链卫星通常运行在高度约550公里的近地轨道,采用模块化设计,配备可展开太阳能板与离子推进系统,可自主调整轨道,并具备离轨再入大气层能力。作为星链大规模组网的一员,它为偏远地区、移动载体提供低延迟宽带连接,支撑星链全球覆盖的服务目标,是SpaceX太空互联网基础设施建设的组成部分。
美国
(US)
| 数据来源 | 国际轨道数据 |
| 星历时间: | 2026-06-09T22:55:04+0800 21小时前 查看轨道信息 |
| 半长轴: | 6843.751km |
| 偏心率: | 0.0001021 |
| 轨道倾角: | 97.286° |
| 近地点辐角 | 104.316° |
| 升交点赤经 | 31.928° |
| 平近点角 | 255.820° |
| 近地点: | 464.915km |
| 远地点: | 466.313km |
| 周期: | 93.908分钟 |
| 每日圈数: | 15.334214 |